| time (UTC) | temp C | wind direction | speed KPH | gust KPH | rain 1hr cm | rain 24hr cm | rain mn cm | humidity % | barometer mb |
| 20260504050546 | 13 | 259 | 4.8 | 16.1 | 0.00 | 0.00 | 0.00 | 66 | 1005.9 |
| 20260504045544 | 13 | 229 | 3.2 | 12.9 | 0.00 | 0.00 | 0.00 | 66 | 1005.9 |
| 20260504045047 | 14 | 239 | 6.4 | 12.9 | 0.00 | 0.00 | 0.00 | 66 | 1006.0 |
| 20260504044552 | 13 | 227 | 4.8 | 12.9 | 0.00 | 0.00 | 0.00 | 66 | 1005.9 |
| 20260504044048 | 14 | 234 | 4.8 | 11.3 | 0.00 | 0.00 | 0.00 | 66 | 1005.9 |
| 20260504043547 | 13 | 224 | 4.8 | 9.7 | 0.00 | 0.00 | 0.00 | 66 | 1006.0 |
| 20260504043101 | 14 | 246 | 3.2 | 9.7 | 0.00 | 0.00 | 0.00 | 66 | 1006.0 |
| 20260504042546 | 14 | 224 | 4.8 | 9.7 | 0.00 | 0.00 | 0.00 | 66 | 1006.0 |
| 20260504042045 | 14 | 229 | 3.2 | 9.7 | 0.00 | 0.00 | 0.00 | 66 | 1005.9 |
| 20260504041549 | 14 | 240 | 1.6 | 8.0 | 0.00 | 0.00 | 0.00 | 66 | 1006.0 |
| 20260504041046 | 14 | 232 | 3.2 | 6.4 | 0.00 | 0.00 | 0.00 | 66 | 1005.9 |
| 20260504040549 | 14 | 234 | 3.2 | 6.4 | 0.00 | 0.00 | 0.00 | 65 | 1006.0 |
| 20260504040110 | 14 | 234 | 3.2 | 6.4 | 0.00 | 0.00 | 0.00 | 65 | 1006.0 |
| 20260504035550 | 14 | 232 | 3.2 | 8.0 | 0.00 | 0.00 | 0.00 | 65 | 1006.0 |
| 20260504035047 | 15 | 232 | 1.6 | 8.0 | 0.00 | 0.00 | 0.00 | 65 | 1006.0 |
| 20260504034550 | 15 | 232 | 3.2 | 8.0 | 0.00 | 0.00 | 0.00 | 64 | 1006.0 |
| 20260504034046 | 15 | 220 | 1.6 | 6.4 | 0.00 | 0.00 | 0.00 | 64 | 1006.1 |
| 20260504033547 | 15 | 229 | 1.6 | 6.4 | 0.00 | 0.00 | 0.00 | 64 | 1006.2 |
| 20260504033054 | 15 | 232 | 1.6 | 6.4 | 0.00 | 0.00 | 0.00 | 64 | 1006.2 |
| 20260504032548 | 15 | 229 | 3.2 | 6.4 | 0.00 | 0.00 | 0.00 | 64 | 1006.2 |
| 20260504032048 | 15 | 232 | 1.6 | 6.4 | 0.00 | 0.00 | 0.00 | 63 | 1006.2 |
| 20260504031556 | 15 | 230 | 3.2 | 8.0 | 0.00 | 0.00 | 0.00 | 63 | 1006.2 |
| 20260504031046 | 15 | 226 | 3.2 | 9.7 | 0.00 | 0.00 | 0.00 | 63 | 1006.3 |
| 20260504030544 | 15 | 224 | 3.2 | 9.7 | 0.00 | 0.00 | 0.00 | 62 | 1006.3 |
| 20260504030054 | 15 | 222 | 3.2 | 6.4 | 0.00 | 0.00 | 0.00 | 62 | 1006.3 |
| 20260504025544 | 15 | 228 | 3.2 | 6.4 | 0.00 | 0.00 | 0.00 | 62 | 1006.4 |
| 20260504025048 | 15 | 232 | 3.2 | 6.4 | 0.00 | 0.00 | 0.00 | 61 | 1006.5 |
| 20260504024550 | 15 | 236 | 3.2 | 8.0 | 0.00 | 0.00 | 0.00 | 61 | 1006.4 |
| 20260504024047 | 16 | 244 | 1.6 | 8.0 | 0.00 | 0.00 | 0.00 | 60 | 1006.3 |
| 20260504023548 | 16 | 240 | 1.6 | 8.0 | 0.00 | 0.00 | 0.00 | 60 | 1006.3 |
| 20260504023102 | 16 | 0 | 3.2 | 6.4 | 0.00 | 0.00 | 0.00 | 60 | 1006.3 |
| 20260504022550 | 16 | 222 | 1.6 | 6.4 | 0.00 | 0.00 | 0.00 | 59 | 1006.3 |
| 20260504022045 | 16 | 232 | 1.6 | 8.0 | 0.00 | 0.00 | 0.00 | 59 | 1006.1 |
| 20260504021552 | 16 | 233 | 3.2 | 8.0 | 0.00 | 0.00 | 0.00 | 58 | 1006.2 |
| 20260504021046 | 16 | 236 | 3.2 | 8.0 | 0.00 | 0.00 | 0.00 | 58 | 1006.2 |
| 20260504020544 | 16 | 232 | 3.2 | 6.4 | 0.00 | 0.00 | 0.00 | 58 | 1006.1 |
| 20260504020051 | 16 | 224 | 1.6 | 6.4 | 0.00 | 0.00 | 0.00 | 57 | 1006.1 |
| 20260504015544 | 16 | 234 | 3.2 | 6.4 | 0.00 | 0.00 | 0.00 | 57 | 1006.1 |
| 20260504015048 | 16 | 232 | 1.6 | 8.0 | 0.00 | 0.00 | 0.00 | 57 | 1006.1 |
| 20260504014601 | 17 | 0 | 3.2 | 8.0 | 0.00 | 0.00 | 0.00 | 56 | 1006.1 |
| 20260504014046 | 17 | 236 | 3.2 | 9.7 | 0.00 | 0.00 | 0.00 | 56 | 1006.0 |
| 20260504013548 | 17 | 244 | 1.6 | 9.7 | 0.00 | 0.00 | 0.00 | 55 | 1006.0 |
| 20260504013051 | 17 | 238 | 3.2 | 9.7 | 0.00 | 0.00 | 0.00 | 55 | 1005.9 |
| 20260504012542 | 17 | 232 | 3.2 | 6.4 | 0.00 | 0.00 | 0.00 | 54 | 1005.9 |
| 20260504012043 | 17 | 231 | 3.2 | 6.4 | 0.00 | 0.00 | 0.00 | 54 | 1005.9 |
| 20260504011549 | 17 | 232 | 1.6 | 4.8 | 0.00 | 0.00 | 0.00 | 54 | 1005.7 |
| 20260504011041 | 17 | 232 | 1.6 | 4.8 | 0.00 | 0.00 | 0.00 | 53 | 1005.6 |
| 20260504010541 | 17 | 233 | 1.6 | 4.8 | 0.00 | 0.00 | 0.00 | 52 | 1005.6 |
| 20260504010055 | 18 | 235 | 1.6 | 4.8 | 0.00 | 0.00 | 0.00 | 52 | 1005.6 |
| 20260504005549 | 18 | 236 | 1.6 | 6.4 | 0.00 | 0.00 | 0.00 | 51 | 1005.5 |
| 20260504005044 | 18 | 237 | 1.6 | 8.0 | 0.00 | 0.00 | 0.00 | 50 | 1005.6 |
| 20260504004554 | 18 | 235 | 1.6 | 9.7 | 0.00 | 0.00 | 0.00 | 50 | 1005.6 |
| 20260504004042 | 18 | 240 | 3.2 | 9.7 | 0.00 | 0.00 | 0.00 | 49 | 1005.7 |
| 20260504003541 | 19 | 239 | 3.2 | 8.0 | 0.00 | 0.00 | 0.00 | 48 | 1005.7 |
| 20260504003100 | 19 | 243 | 3.2 | 8.0 | 0.00 | 0.00 | 0.00 | 48 | 1005.7 |
| 20260504002542 | 19 | 294 | 3.2 | 14.5 | 0.00 | 0.00 | 0.00 | 47 | 1005.7 |
| 20260504002041 | 19 | 223 | 4.8 | 17.7 | 0.00 | 0.00 | 0.00 | 47 | 1005.7 |
| 20260504001605 | 20 | 266 | 8.0 | 17.7 | 0.00 | 0.00 | 0.00 | 46 | 1005.7 |
| 20260504001043 | 20 | 267 | 6.4 | 17.7 | 0.00 | 0.00 | 0.00 | 46 | 1005.6 |
| 20260504000542 | 20 | 236 | 8.0 | 16.1 | 0.00 | 0.00 | 0.00 | 45 | 1005.6 |
| 20260504000115 | 20 | 239 | 6.4 | 14.5 | 0.00 | 0.00 | 0.00 | 45 | 1005.7 |
| 20260503235542 | 20 | 279 | 4.8 | 22.5 | 0.00 | 0.00 | 0.00 | 45 | 1005.8 |
| 20260503235045 | 20 | 282 | 6.4 | 22.5 | 0.00 | 0.00 | 0.00 | 45 | 1005.7 |
| 20260503234556 | 20 | 255 | 8.0 | 22.5 | 0.00 | 0.00 | 0.00 | 45 | 1005.7 |
| 20260503234042 | 20 | 227 | 8.0 | 19.3 | 0.00 | 0.00 | 0.00 | 45 | 1005.6 |
| 20260503233542 | 20 | 266 | 11.3 | 20.9 | 0.00 | 0.00 | 0.00 | 45 | 1005.6 |
| 20260503233050 | 20 | 242 | 9.7 | 22.5 | 0.00 | 0.00 | 0.00 | 45 | 1005.6 |
| 20260503232541 | 20 | 290 | 12.9 | 22.5 | 0.00 | 0.00 | 0.00 | 45 | 1005.7 |
| 20260503232041 | 20 | 244 | 8.0 | 24.1 | 0.00 | 0.00 | 0.00 | 45 | 1005.8 |
| 20260503231551 | 20 | 251 | 9.7 | 24.1 | 0.00 | 0.00 | 0.00 | 45 | 1005.7 |
| 20260503231043 | 20 | 233 | 6.4 | 24.1 | 0.00 | 0.00 | 0.00 | 45 | 1005.8 |
| 20260503230544 | 20 | 238 | 9.7 | 20.9 | 0.00 | 0.00 | 0.00 | 44 | 1005.7 |
| 20260503230053 | 20 | 242 | 9.7 | 24.1 | 0.00 | 0.00 | 0.00 | 44 | 1005.9 |
| 20260503225545 | 20 | 226 | 11.3 | 24.1 | 0.00 | 0.00 | 0.00 | 44 | 1005.9 |
| 20260503225042 | 20 | 263 | 14.5 | 24.1 | 0.00 | 0.00 | 0.00 | 44 | 1005.9 |
| 20260503224552 | 20 | 230 | 11.3 | 24.1 | 0.00 | 0.00 | 0.00 | 45 | 1005.9 |
| 20260503224048 | 20 | 211 | 8.0 | 19.3 | 0.00 | 0.00 | 0.00 | 46 | 1006.0 |
| 20260503223547 | 20 | 221 | 8.0 | 16.1 | 0.00 | 0.00 | 0.00 | 45 | 1006.0 |
| 20260503223051 | 20 | 246 | 6.4 | 25.7 | 0.00 | 0.00 | 0.00 | 46 | 1006.0 |
| 20260503222541 | 19 | 212 | 11.3 | 25.7 | 0.00 | 0.00 | 0.00 | 45 | 1006.0 |
| 20260503222045 | 19 | 190 | 8.0 | 24.1 | 0.00 | 0.00 | 0.00 | 46 | 1006.0 |
| 20260503221557 | 19 | 200 | 11.3 | 22.5 | 0.00 | 0.00 | 0.00 | 45 | 1006.1 |
| 20260503221042 | 19 | 224 | 8.0 | 25.7 | 0.00 | 0.00 | 0.00 | 46 | 1006.1 |
| 20260503220542 | 19 | 211 | 8.0 | 27.4 | 0.00 | 0.00 | 0.00 | 46 | 1006.2 |
| 20260503220057 | 19 | 242 | 11.3 | 27.4 | 0.00 | 0.00 | 0.00 | 45 | 1006.2 |
| 20260503215541 | 19 | 223 | 11.3 | 29.0 | 0.00 | 0.00 | 0.00 | 44 | 1006.3 |
| 20260503215041 | 19 | 210 | 12.9 | 29.0 | 0.00 | 0.00 | 0.00 | 45 | 1006.3 |
| 20260503214549 | 19 | 202 | 6.4 | 24.1 | 0.00 | 0.00 | 0.00 | 46 | 1006.4 |
| 20260503214044 | 19 | 262 | 9.7 | 20.9 | 0.00 | 0.00 | 0.00 | 45 | 1006.5 |
| 20260503213543 | 18 | 220 | 11.3 | 25.7 | 0.00 | 0.00 | 0.00 | 45 | 1006.5 |
| 20260503213053 | 18 | 238 | 9.7 | 25.7 | 0.00 | 0.00 | 0.00 | 46 | 1006.6 |
| 20260503212544 | 18 | 198 | 11.3 | 30.6 | 0.00 | 0.00 | 0.00 | 45 | 1006.6 |
| 20260503212044 | 18 | 225 | 11.3 | 30.6 | 0.00 | 0.00 | 0.00 | 45 | 1006.6 |
| 20260503211550 | 18 | 232 | 12.9 | 27.4 | 0.00 | 0.00 | 0.00 | 45 | 1006.8 |
| 20260503211044 | 18 | 227 | 11.3 | 30.6 | 0.00 | 0.00 | 0.00 | 45 | 1006.9 |
| 20260503210541 | 18 | 236 | 9.7 | 30.6 | 0.00 | 0.00 | 0.00 | 45 | 1006.9 |
| 20260503210048 | 18 | 217 | 12.9 | 25.7 | 0.00 | 0.00 | 0.00 | 45 | 1007.0 |
| 20260503205544 | 18 | 242 | 14.5 | 32.2 | 0.00 | 0.00 | 0.00 | 45 | 1007.0 |
| 20260503205042 | 18 | 213 | 17.7 | 32.2 | 0.00 | 0.00 | 0.00 | 45 | 1007.2 |
| 20260503204551 | 18 | 214 | 17.7 | 30.6 | 0.00 | 0.00 | 0.00 | 45 | 1007.4 |
| 20260503204041 | 17 | 213 | 12.9 | 29.0 | 0.00 | 0.00 | 0.00 | 47 | 1007.4 |
| 20260503203545 | 17 | 213 | 12.9 | 29.0 | 0.00 | 0.00 | 0.00 | 46 | 1007.5 |
| 20260503203047 | 17 | 226 | 12.9 | 29.0 | 0.00 | 0.00 | 0.00 | 46 | 1007.6 |
| 20260503202545 | 17 | 215 | 9.7 | 33.8 | 0.00 | 0.00 | 0.00 | 45 | 1007.7 |
| 20260503202042 | 17 | 197 | 8.0 | 33.8 | 0.00 | 0.00 | 0.00 | 46 | 1007.8 |
| 20260503201548 | 17 | 232 | 14.5 | 30.6 | 0.00 | 0.00 | 0.00 | 44 | 1008.0 |
| 20260503201044 | 17 | 290 | 12.9 | 30.6 | 0.00 | 0.00 | 0.00 | 47 | 1008.0 |
| 20260503200541 | 17 | 215 | 9.7 | 29.0 | 0.00 | 0.00 | 0.00 | 50 | 1008.0 |
| 20260503200057 | 17 | 223 | 6.4 | 27.4 | 0.00 | 0.00 | 0.00 | 53 | 1008.1 |
| 20260503195544 | 17 | 234 | 9.7 | 27.4 | 0.00 | 0.00 | 0.00 | 52 | 1008.2 |
| 20260503195044 | 17 | 233 | 9.7 | 27.4 | 0.00 | 0.00 | 0.00 | 53 | 1008.3 |
| 20260503194551 | 16 | 225 | 12.9 | 35.4 | 0.00 | 0.00 | 0.00 | 53 | 1008.5 |
| 20260503194042 | 16 | 197 | 16.1 | 35.4 | 0.00 | 0.00 | 0.00 | 54 | 1008.6 |
| 20260503193543 | 16 | 235 | 9.7 | 33.8 | 0.00 | 0.00 | 0.00 | 55 | 1008.9 |
| 20260503193117 | 16 | 219 | 12.9 | 24.1 | 0.00 | 0.00 | 0.00 | 56 | 1008.8 |
| 20260503192546 | 16 | 224 | 9.7 | 25.7 | 0.00 | 0.00 | 0.00 | 56 | 1008.9 |
| 20260503192049 | 15 | 200 | 9.7 | 25.7 | 0.00 | 0.00 | 0.00 | 56 | 1008.9 |
| 20260503191603 | 15 | 186 | 9.7 | 24.1 | 0.00 | 0.00 | 0.00 | 58 | 1008.8 |
| 20260503191046 | 15 | 181 | 9.7 | 24.1 | 0.00 | 0.00 | 0.00 | 57 | 1008.9 |
| 20260503190545 | 15 | 183 | 9.7 | 22.5 | 0.00 | 0.00 | 0.00 | 57 | 1009.0 |
| 20260503190053 | 15 | 213 | 8.0 | 17.7 | 0.00 | 0.00 | 0.00 | 58 | 1009.0 |
| 20260503185545 | 15 | 168 | 9.7 | 24.1 | 0.00 | 0.00 | 0.00 | 57 | 1009.0 |
| 20260503185042 | 15 | 192 | 9.7 | 24.1 | 0.00 | 0.00 | 0.00 | 58 | 1009.1 |
| 20260503184551 | 15 | 200 | 9.7 | 22.5 | 0.00 | 0.00 | 0.00 | 56 | 1009.3 |
| 20260503184047 | 14 | 206 | 8.0 | 25.7 | 0.00 | 0.00 | 0.00 | 58 | 1009.4 |
| 20260503183547 | 14 | 232 | 9.7 | 25.7 | 0.00 | 0.00 | 0.00 | 57 | 1009.4 |
| 20260503183107 | 13 | 217 | 9.7 | 25.7 | 0.00 | 0.00 | 0.00 | 57 | 1009.5 |
| 20260503182547 | 13 | 164 | 9.7 | 19.3 | 0.00 | 0.00 | 0.00 | 58 | 1009.6 |
| 20260503182047 | 13 | 200 | 8.0 | 22.5 | 0.00 | 0.00 | 0.00 | 58 | 1009.7 |
| 20260503181618 | 13 | 208 | 9.7 | 22.5 | 0.00 | 0.00 | 0.00 | 59 | 1009.9 |
| 20260503181047 | 13 | 239 | 8.0 | 16.1 | 0.00 | 0.00 | 0.00 | 61 | 1010.0 |
| 20260503180547 | 13 | 180 | 8.0 | 19.3 | 0.00 | 0.00 | 0.00 | 62 | 1010.2 |
| 20260503180051 | 13 | 163 | 8.0 | 19.3 | 0.00 | 0.00 | 0.00 | 63 | 1010.3 |
| 20260503175547 | 13 | 158 | 6.4 | 24.1 | 0.00 | 0.00 | 0.00 | 63 | 1010.3 |
| 20260503175048 | 12 | 226 | 11.3 | 24.1 | 0.00 | 0.00 | 0.00 | 63 | 1010.4 |
| 20260503174554 | 12 | 172 | 6.4 | 16.1 | 0.00 | 0.00 | 0.00 | 65 | 1010.7 |
| 20260503174046 | 12 | 231 | 4.8 | 19.3 | 0.00 | 0.00 | 0.00 | 64 | 1010.9 |
| 20260503173546 | 12 | 167 | 11.3 | 24.1 | 0.00 | 0.00 | 0.00 | 64 | 1011.0 |
| 20260503173056 | 12 | 175 | 8.0 | 24.1 | 0.00 | 0.00 | 0.00 | 66 | 1011.1 |
| 20260503172548 | 12 | 217 | 11.3 | 24.1 | 0.00 | 0.00 | 0.00 | 65 | 1011.4 |
| 20260503172048 | 12 | 210 | 8.0 | 20.9 | 0.00 | 0.00 | 0.00 | 66 | 1011.5 |
| 20260503171556 | 12 | 209 | 11.3 | 20.9 | 0.00 | 0.00 | 0.00 | 67 | 1011.9 |
| 20260503171047 | 12 | 181 | 8.0 | 25.7 | 0.00 | 0.00 | 0.00 | 70 | 1011.9 |
| 20260503170547 | 11 | 219 | 9.7 | 29.0 | 0.00 | 0.00 | 0.00 | 70 | 1011.9 |
| 20260503150546 | 11 | 271 | 9.7 | 24.1 | 0.00 | 0.00 | 0.00 | 65 | 1013.6 |
| 20260503131045 | 8 | 259 | 6.4 | 16.1 | 0.00 | 0.00 | 0.00 | 65 | 1014.4 |
| 20260503130545 | 8 | 245 | 8.0 | 16.1 | 0.00 | 0.00 | 0.00 | 65 | 1014.3 |
| 20260503110545 | 7 | 232 | 8.0 | 22.5 | 0.00 | 0.00 | 0.00 | 66 | 1013.7 |
| 20260503100106 | 7 | 225 | 8.0 | 14.5 | 0.00 | 0.00 | 0.00 | 64 | 1014.0 |
| 20260503081552 | 7 | 246 | 4.8 | 11.3 | 0.00 | 0.00 | 0.00 | 61 | 1014.5 |
| 20260503081042 | 7 | 233 | 3.2 | 11.3 | 0.00 | 0.00 | 0.00 | 61 | 1014.6 |
| 20260503080549 | 7 | 236 | 4.8 | 11.3 | 0.00 | 0.00 | 0.00 | 61 | 1014.5 |
| 20260503072546 | 6 | 229 | 3.2 | 8.0 | 0.00 | 0.00 | 0.00 | 62 | 1014.6 |
| 20260503072046 | 6 | 245 | 3.2 | 8.0 | 0.00 | 0.00 | 0.00 | 62 | 1014.6 |
| 20260503071558 | 6 | 236 | 3.2 | 8.0 | 0.00 | 0.00 | 0.00 | 61 | 1014.7 |